Regional Weather Roundup
Issued by NWS Midland/Odessa, TX

Skip options and go directly to product.
Home | Oldest Version | Previous Version | Current Version | All | Graphics & Text | Save Text | Print | Product List | Glossary On

Skip product version selection by date and time.   
494
ASUS44 KMAF 252310
RWRMAF
MIDLAND AREA WEATHER ROUNDUP
NATIONAL WEATHER SERVICE MIDLAND TX
500 PM CST TUE NOV 25 2014

...IN SOUTHWEST TEXAS AND SOUTHEAST NEW MEXICO...

CITY           SKY/WX    TMP DP  RH WIND       PRES   REMARKS
ALPINE         CLEAR     52   4  14 W13       30.32S
ANDREWS        FAIR      52  13  21 SW16G22   30.17F
ARTESIA        NOT AVBL
BIG SPRING     CLEAR     56  16  20 SW18      30.20S
CARLSBAD       CLEAR     58   5  12 W26G33    30.15F
DRYDEN           N/A     63  10  12 SW9       30.22S
FORT STOCKTON  CLEAR     55  12  18 W6        30.23F
GUAD PASS      CLEAR     47   5  18 W37G45    30.23F WCI  37
HOBBS          CLEAR     50  12  22 SW13G24   30.17F
MARFA          CLEAR     50   3  14 W14G23    30.30S
MIDLAND AIRPK  CLEAR     55  13  18 SW15G23   30.19F
MIDLAND INTL   FAIR      54  13  19 SW18      30.18F
ODESSA         CLEAR     54  10  17 SW18G24   30.19F
PECOS          CLEAR     59  12  16 SW10      30.20F
PRESIDIO       FAIR      58  12  16 W5        30.28F
SEMINOLE       CLEAR     53  14  21 W21       30.18R
SNYDER         CLEAR     54  22  28 SW16      30.16S
WINK           CLEAR     58   6  12 SW16G24   30.16F
$$
...OTHER STATIONS IN TEXAS...

CITY           SKY/WX    TMP DP  RH WIND       PRES   REMARKS
ABILENE        CLEAR     57  16  20 W15       30.16F
AMARILLO       CLEAR     53   7  15 SW17G25   29.99F
AUSTIN         PTCLDY    64  28  25 CALM      30.20S
BROWNSVILLE    CLEAR     65  38  36 N8        30.29R
CORPUS CHRISTI CLEAR     66  31  27 NW5       30.26F
DALLAS FTW     PTCLDY    59  27  29 W10       30.16S
DEL RIO        CLEAR     64  24  21 NW9       30.23F
EL PASO        MOSUNNY   54   7  15 SW14      30.29F
HOUSTON INT    CLEAR     62  27  26 NW5       30.22S
LUBBOCK        PTCLDY    53  10  18 W17       30.09F
SAN ANGELO     CLEAR     60  16  18 W13       30.19F
SAN ANTONIO    PTCLDY    65  26  23 SW12      30.21F
WACO           CLEAR     60  27  28 SW8       30.18F
WICHITA FALLS  NOT AVBL
$$
...OTHER LOCATIONS IN NEW MEXICO...

CITY           SKY/WX    TMP DP  RH WIND       PRES   REMARKS
ALAMAGORDO     CLEAR     50   0  12 N5        30.29F
ALBUQUERQUE    PTCLDY    49   4  16 N9        30.27F
CANNON AFB     CLEAR     54   5  13 W21G33    30.04
CLOVIS         CLEAR     54   7  15 W26G36    30.03F
HOLLOMAN AFB   SUNNY     52   4  14 CALM      30.28F
ROSWELL        CLEAR     60   1   9 NW15      30.13F
RUIDOSO        CLEAR     41   0  17 NW24G41   30.22F WCI  31
SANTA FE       CLEAR     42   6  22 N14       30.22S WCI  35
TRUTH OR CONSE SUNNY     53  -2  10 S12       30.27S
TUCUMCARI      CLEAR     55  13  18 W23G31    29.98F
$$

USA.gov is the U.S. government's official web portal to all federal, state and local government web resources and services.